Showing default

LANDSAT 1 (ERTS 1), 6126

Orbit data source: Space-Track

LANDSAT 1 (ERTS 1), 6126 is a payload satellite owned by GSFC (US) in SSO that was launched on Sun, 23 Jul 1972 UTC via a DELTA 0900 launch vehicle from the Air Force Western Test Range (AFWTR). Payload-class satellites include a variety of spacecraft equipped with specific instruments for various scientific and technological missions. These include communications satellites like Starlink; space stations such as the ISS; scientific satellites like the Hubble; Earth observation satellites from companies like Planet Labs, Umbra, and HawkEye 360; GPS; miniature CubeSats for education and research; and military/defense satellites.

Loading next visibility...
Identifier
6126, 1972-058A
Orbit
SSO
Country
Flag of USUS
Related business
Manufacturer
GE/MSVD
Mission
Non-operational spacecraft
Bus & Motor
NIMBUS, Unknown motor
Mass
891 kg wet, 891 kg dry
Launch date (UTC)
1972-07-23 (53 years ago)
Launch vehicle
DELTA 0900
Launch site
Air Force Western Test Range (AFWTR)
Object type
Payload
Rocket body
Debris
Shape & HBR
Unknown
Radar Cross Section
Large (>1 m²)

Expand to show TLE details & history
Last TLE update: 15 hours ago

TLE from 15 hours ago
0 LANDSAT 1 (ERTS 1)
1 06126U 72058A   25305.48471359  .00000290  00000-0  23757-3 0  9991
2 06126  99.3604 326.1560 0008582 148.6888 211.4786 13.97808723716143
Epoch: 2025-11-01T11:37Z
TLE epoch observation values (Epoch: 2025-11-01T11:37:59.254Z)
Latitude
-0.00007°
Longitude
110.64499°
Altitude
909.586 km
Speed
7.395 km/s
True Right ascension
21h 44m 37s
True Declination
0° 00' 00"
Sunlit
Object was in daylight at epoch
Visualization orbit readout
Latitude
Unknown
Longitude
Unknown
Altitude
Unknown
Speed
Unknown
Apparent Right ascension
Unknown
Apparent Declination
Unknown
Sunlit
N/A
Visualization observer readout
Local Sidereal Time
22:42:11
Azimuth
Unknown
Elevation
Unknown
Doppler factor
Unknown
Orbital elements
Apogee altitude
904.858 km
Perigee altitude
892.368 km
Semi-major axis
7,276.75 km
Eccentricity
0.00086
Inclination
99.3604°
RAAN
326.156°
Arg. of periapsis
148.6888°
True anomaly
211.42729°
Mean anomaly
211.4786°
Eccentric anomaly
211.45294°
Mean motion
3.49653 °/min
Orbital period
102.96 mins
BSTAR
0.00023757
Loading maneuver chart data...
Computing Atmospheric mass density...
Loading historical data...
Loading historical data...
Loading historical data...
Loading historical data...
Loading historical data...
Loading historical data...
Loading historical data...

Documentation

Showing up to 5 results
|